Regional Weather Roundup
Issued by NWS

Home | Current Version | Previous Version | Graphics & Text | Print | Product List | Glossary On
Versions: 1 2 3 4 5 6 7 8 9 10 11 12 13 14 15 16 17 18 19 20 21 22 23 24 25 26 27 28 29 30 31 32 33 34 35 36 37 38 39 40 41 42 43 44 45 46 47 48 49 50
241
ASUS45 KABQ 210001
RWRNM
NEW MEXICO REGIONAL WEATHER ROUNDUP
NATIONAL WEATHER SERVICE ALBUQUERQUE NM
600 PM MDT THU JUL 20 2017

NOTE: "FAIR" MEANS FEW OR NO CLOUDS BELOW 12,000 FEET AGL WITH NO
       SIGNIFICANT WEATHER OR OBSTRUCTIONS TO VISION.

      THIS PRODUCT IS RELEASED AS TWO VERSIONS.  ONE VERSION NEAR
      THE TOP OF THE HOUR CONTAINING PRELIMINARY DATA FROM ALBUQUERQUE
      AND OTHER STATIONS.  A FINAL VERSION WITH ADDITIONAL DATA IS
      ISSUED ABOUT 10 MINUTES AFTER THE HOUR.

NMZ501-503-504-510>518-210100-
NORTHWEST PLATEAU/NORTHCENTRAL MOUNTAINS

CITY           SKY/WX    TMP DP  RH WIND       PRES   REMARKS
FARMINGTON     FAIR      90  49  24 S17       30.07F
6HR MIN TEMP:  81; 6HR MAX TEMP:  93; 6HR PCP: TRACE;

LOS ALAMOS     FAIR      78  43  28 SW10      30.28F
SANTA FE       FAIR      87  48  25 SW20G25   30.19F
6HR MIN TEMP:  81; 6HR MAX TEMP:  89;

TAOS           CLOUDY    84  45  24 W8G21     30.24F
ANGEL FIRE     FAIR      78  43  28 S9        30.36S

$$
NMZ402-403-502-505>509-210100-
WESTCENTRAL MOUNTAINS/SOUTHWEST MOUNTAINS

CITY           SKY/WX    TMP DP  RH WIND       PRES   REMARKS
GALLUP         FAIR      73  56  54 SW17      30.23S
6HR MIN TEMP:  62; 6HR MAX TEMP:  81; 6HR PCP:  0.07;

GRANTS         CLOUDY    73  49  42 W14G22    30.24R THUNDER
SILVER CITY    PTSUNNY   80  56  42 NE23      30.18S

$$
NMZ407-409-411-412-210100-
SOUTHERN DESERTS

CITY           SKY/WX    TMP DP  RH WIND       PRES   REMARKS
DEMING         PTSUNNY   87  57  35 SE10      30.08F
6HR MIN TEMP:  78; 6HR MAX TEMP:  89;

LAS CRUCES     FAIR      88  52  29 E10G17    30.10F
ALAMOGORDO     FAIR      82  57  42 SE3       30.12S
T OR C         FAIR      86  57  37 SW9       30.11F
6HR MIN TEMP:  80; 6HR MAX TEMP:  90;


$$
NMZ519>523-210100-
CENTRAL VALLEYS/CENTRAL HIGHLANDS

CITY           SKY/WX    TMP DP  RH WIND       PRES   REMARKS
ALBUQUERQUE    PTSUNNY   84  50  30 E28G39    30.16S THUNDER
6HR MIN TEMP:  81; 6HR MAX TEMP:  89;

DOUBLE EAGLE   PTSUNNY   88  48  25 S17       30.18F
MORIARTY ARPT  FAIR      72  60  64 SW8       30.23F
6HR MIN TEMP:  72; 6HR MAX TEMP:  91; 6HR PCP:  0.01;

CLINES CORNERS FAIR      75  50  41 W10       30.29F
6HR MIN TEMP:  72; 6HR MAX TEMP:  86; 6HR PCP: TRACE;

BELEN          NOT AVBL
SOCORRO        FAIR      87  48  26 S12       30.11F
6HR MIN TEMP:  79; 6HR MAX TEMP:  90;


$$
NMZ524>526-539-540-210100-
SOUTHCENTRAL MOUNTAINS

CITY           SKY/WX    TMP DP  RH WIND       PRES   REMARKS
RUIDOSO        FAIR      72  54  53 SE5       30.32S

$$
NMZ527>531-210100-
NORTHEAST HIGHLANDS/NORTHEAST PLAINS

CITY           SKY/WX    TMP DP  RH WIND       PRES   REMARKS
LAS VEGAS      FAIR      85  42  22 S17       30.24F
6HR MIN TEMP:  82; 6HR MAX TEMP:  87;

RATON          FAIR      91  38  15 S18G29    30.15F
6HR MIN TEMP:  86; 6HR MAX TEMP:  93;

CLAYTON        FAIR      93  44  18 SW13G21   30.08F
6HR MIN TEMP:  90; 6HR MAX TEMP:  95;


$$
NMZ532>537-210100-
EASTCENTRAL PLAINS

CITY           SKY/WX    TMP DP  RH WIND       PRES   REMARKS
SANTA ROSA     FAIR      93  45  18 S16G22    30.08F
TUCUMCARI      FAIR      98  45  16 S9        30.01F
6HR MIN TEMP:  92; 6HR MAX TEMP: 100;

CANNON AFB     FAIR      95  50  21 S13G21    30.09F
6HR MIN TEMP:  89; 6HR MAX TEMP:  96;

CLOVIS AIRPORT FAIR      94  52  24 S15       30.09F

$$
NMZ028-029-538-210100-
SOUTHEAST PLAINS

CITY           SKY/WX    TMP DP  RH WIND       PRES   REMARKS
ROSWELL        FAIR      95  53  24 S16       30.03F
6HR MIN TEMP:  87; 6HR MAX TEMP:  96;

ARTESIA        FAIR      93  55  27 S14G20    30.03F
CARLSBAD       FAIR      93  56  28 S8        30.01F
6HR MIN TEMP:  88; 6HR MAX TEMP:  96;

HOBBS          MOSUNNY   93  50  22 S9G16     30.07F


$$




USA.gov is the U.S. government's official web portal to all federal, state and local government web resources and services.